H1 CPF 2 NER 2024 10 7 9 281 01 glonass116 H2 0907001 9116 36111 2024 10 7 0 0 0 2024 10 10 23 45 0 900 1 1 0 0 0 1 H9 10 0 60590 0.00000 0 -12266451.785 -10575138.342 19703093.972 10 0 60590 900.00000 0 -12984257.182 -12781154.737 17849550.414 10 0 60590 1800.00000 0 -13776071.967 -14694312.604 15649233.063 10 0 60590 2700.00000 0 -14589102.506 -16279382.099 13144903.306 10 0 60590 3600.00000 0 -15366406.380 -17513320.451 10385224.863 10 0 60590 4500.00000 0 -16049405.494 -18386001.044 7423817.406 10 0 60590 5400.00000 0 -16580484.564 -18900410.659 4318213.611 10 0 60590 6300.00000 0 -16905565.072 -19072307.768 1128739.958 10 0 60590 7200.00000 0 -16976545.702 -18929357.318 -2082656.704 10 0 60590 8100.00000 0 -16753505.852 -18509779.542 -5253613.741 10 0 60590 9000.00000 0 -16206578.739 -17860570.651 -8322564.740 10 0 60590 9900.00000 0 -15317414.618 -17035371.258 -11229935.032 10 0 60590 10800.00000 0 -14080171.860 -16092073.069 -13919297.337 10 0 60590 11700.00000 0 -12501993.537 -15090265.175 -16338465.025 10 0 60590 12600.00000 0 -10602948.806 -14088627.830 -18440501.881 10 0 60590 13500.00000 0 -8415440.731 -13142383.474 -20184629.104 10 0 60590 14400.00000 0 -5983104.426 -12300912.093 -21537012.441 10 0 60590 15300.00000 0 -3359240.574 -11605630.911 -22471414.719 10 0 60590 16200.00000 0 -604848.562 -11088227.059 -22969701.745 10 0 60590 17100.00000 0 2213660.088 -10769317.032 -23022192.277 10 0 60590 18000.00000 0 5026974.038 -10657588.847 -22627845.633 10 0 60590 18900.00000 0 7765517.076 -10749462.641 -21794283.446 10 0 60590 19800.00000 0 10362097.407 -11029283.854 -20537645.047 10 0 60590 20700.00000 0 12754462.279 -11470040.950 -18882278.907 10 0 60590 21600.00000 0 14887652.740 -12034577.713 -16860275.611 10 0 60590 22500.00000 0 16716061.401 -12677249.434 -14510850.688 10 0 60590 23400.00000 0 18205108.105 -13345953.566 -11879588.614 10 0 60590 24300.00000 0 19332464.169 -13984449.546 -9017561.973 10 0 60590 25200.00000 0 20088774.485 -14534870.044 -5980342.363 10 0 60590 26100.00000 0 20477847.664 -14940317.534 -2826922.015 10 0 60590 27000.00000 0 20516306.674 -15147436.192 381433.018 10 0 60590 27900.00000 0 20232715.096 -15108849.858 3582375.590 10 0 60590 28800.00000 0 19666216.300 -14785362.240 6713692.502 10 0 60590 29700.00000 0 18864743.397 -14147825.426 9714517.688 10 0 60590 30600.00000 0 17882876.055 -13178596.693 12526519.384 10 0 60590 31500.00000 0 16779435.134 -11872521.001 15095037.584 10 0 60590 32400.00000 0 15614917.146 -10237396.590 17370149.249 10 0 60590 33300.00000 0 14448877.143 -8293902.917 19307640.295 10 0 60590 34200.00000 0 13337370.666 -6074992.889 20869865.357 10 0 60590 35100.00000 0 12330562.601 -3624773.796 22026478.743 10 0 60590 36000.00000 0 11470603.552 -996922.811 22755022.643 10 0 60590 36900.00000 0 10789862.871 1747297.663 23041361.499 10 0 60590 37800.00000 0 10309592.226 4541342.869 22879954.483 10 0 60590 38700.00000 0 10039075.451 7315911.702 22273961.100 10 0 60590 39600.00000 0 9975299.864 10001591.434 21235178.117 10 0 60590 40500.00000 0 10103162.328 12531511.907 19783809.112 10 0 60590 41400.00000 0 10396200.874 14843899.496 17948071.104 10 0 60590 42300.00000 0 10817820.641 16884425.259 15763645.768 10 0 60590 43200.00000 0 11322962.047 18608250.204 13272985.705 10 0 60590 44100.00000 0 11860140.559 19981683.199 10524489.028 10 0 60590 45000.00000 0 12373771.622 20983383.027 7571558.181 10 0 60590 45900.00000 0 12806682.279 21605055.252 4471561.245 10 0 60590 46800.00000 0 13102703.017 21851615.597 1284715.970 10 0 60590 47700.00000 0 13209229.925 21740813.909 -1927081.531 10 0 60590 48600.00000 0 13079648.431 21302335.499 -5101460.375 10 0 60590 49500.00000 0 12675515.745 20576418.530 -8176787.108 10 0 60590 50400.00000 0 11968409.277 19612046.447 -11093362.586 10 0 60590 51300.00000 0 10941362.463 18464792.245 -13794580.104 10 0 60590 52200.00000 0 9589826.821 17194405.768 -16228022.237 10 0 60590 53100.00000 0 7922118.990 15862245.860 -18346475.174 10 0 60590 54000.00000 0 5959333.167 14528665.410 -20108841.178 10 0 60590 54900.00000 0 3734721.592 13250458.966 -21480931.952 10 0 60590 55800.00000 0 1292567.987 12078479.741 -22436128.048 10 0 60590 56700.00000 0 -1313400.204 11055525.452 -22955892.133 10 0 60590 57600.00000 0 -4021995.857 10214581.020 -23030126.708 10 0 60590 58500.00000 0 -6766871.139 9577491.166 -22657369.667 10 0 60590 59400.00000 0 -9479037.118 9154117.914 -21844824.122 10 0 60590 60300.00000 0 -12089500.533 8942017.859 -20608221.789 10 0 60590 61200.00000 0 -14531909.209 8926652.360 -18971522.288 10 0 60590 62100.00000 0 -16745097.134 9082121.634 -16966453.623 10 0 60590 63000.00000 0 -18675424.095 9372391.803 -14631902.088 10 0 60590 63900.00000 0 -20278812.994 9752963.281 -12013162.728 10 0 60590 64800.00000 0 -21522400.285 10172910.200 -9161064.215 10 0 60590 65700.00000 0 -22385730.900 10577204.832 -6130984.611 10 0 60590 66600.00000 0 -22861447.833 10909228.664 -2981776.832 10 0 60590 67500.00000 0 -22955447.691 11113363.683 225375.363 10 0 60590 68400.00000 0 -22686495.893 11137553.725 3428148.462 10 0 60590 69300.00000 0 -22085317.961 10935726.828 6564293.761 10 0 60590 70200.00000 0 -21193205.528 10469975.186 9572851.264 10 0 60590 71100.00000 0 -20060196.159 9712399.507 12395338.709 10 0 60590 72000.00000 0 -18742904.138 8646538.689 14976892.014 10 0 60590 72900.00000 0 -17302094.033 7268323.324 17267334.510 10 0 60590 73800.00000 0 -15800099.587 5586511.617 19222153.920 10 0 60590 74700.00000 0 -14298196.849 3622588.217 20803367.953 10 0 60590 75600.00000 0 -12854042.101 1410129.067 21980261.833 10 0 60590 76500.00000 0 -11519282.155 -1006342.238 22729983.689 10 0 60590 77400.00000 0 -10337437.107 -3572959.747 23037986.573 10 0 60590 78300.00000 0 -9342143.923 -6228516.029 22898308.893 10 0 60590 79200.00000 0 -8555833.914 -8906776.120 22313688.169 10 0 60590 80100.00000 0 -7988898.846 -11539008.900 21295506.111 10 0 60590 81000.00000 0 -7639379.844 -14056631.271 19863566.197 10 0 60590 81900.00000 0 -7493191.331 -16393855.765 18045708.059 10 0 60590 82800.00000 0 -7524869.726 -18490231.917 15877266.021 10 0 60590 83700.00000 0 -7698814.654 -20292976.118 13400382.132 10 0 60590 84600.00000 0 -7970969.666 -21758993.380 10663186.820 10 0 60590 85500.00000 0 -8290870.945 -22856507.122 7718862.960 10 0 60591 0.00000 0 -8603976.910 -23566229.440 4624611.760 10 0 60591 900.00000 0 -8854179.916 -23882023.788 1440538.962 10 0 60591 1800.00000 0 -8986392.910 -23811032.142 -1771512.645 10 0 60591 2700.00000 0 -8949101.721 -23373263.285 -4949166.895 10 0 60591 3600.00000 0 -8696774.078 -22600659.196 -8030726.339 10 0 60591 4500.00000 0 -8192023.167 -21535679.942 -10956370.434 10 0 60591 5400.00000 0 -7407433.715 -20229467.070 -13669316.118 10 0 60591 6300.00000 0 -6326972.918 -18739663.185 -16116918.140 10 0 60591 7200.00000 0 -4946926.067 -17127979.602 -18251687.872 10 0 60591 8100.00000 0 -3276316.707 -15457614.296 -20032211.122 10 0 60591 9000.00000 0 -1336792.745 -13790628.279 -21423947.634 10 0 60591 9900.00000 0 838017.745 -12185390.045 -22399897.276 10 0 60591 10800.00000 0 3203655.270 -10694194.499 -22941120.647 10 0 60591 11700.00000 0 5706435.543 -9361155.327 -23037104.484 10 0 60591 12600.00000 0 8285448.328 -8220458.180 -22685965.226 10 0 60591 13500.00000 0 10874866.607 -7295046.911 -21894486.910 10 0 60591 14400.00000 0 13406471.310 -6595797.063 -20677992.624 10 0 60591 15300.00000 0 15812287.689 -6121210.528 -19060051.667 10 0 60591 16200.00000 0 18027224.660 -5857643.600 -17072027.581 10 0 60591 17100.00000 0 19991608.020 -5780058.415 -14752475.124 10 0 60591 18000.00000 0 21653502.495 -5853265.850 -12146397.199 10 0 60591 18900.00000 0 22970726.089 -6033607.304 -9304375.474 10 0 60591 19800.00000 0 23912472.722 -6271004.214 -6281591.039 10 0 60591 20700.00000 0 24460475.281 -6511288.467 -3136753.817 10 0 60591 21600.00000 0 24609660.297 -6698714.844 69038.547 10 0 60591 22500.00000 0 24368266.758 -6778548.658 3273489.979 10 0 60591 23400.00000 0 23757424.062 -6699618.394 6414319.926 10 0 60591 24300.00000 0 22810206.955 -6416724.459 9430477.817 10 0 60591 25200.00000 0 21570207.388 -5892801.127 12263333.854 10 0 60591 26100.00000 0 20089683.660 -5100739.181 14857822.362 10 0 60591 27000.00000 0 18427364.996 -4024791.106 17163515.011 10 0 60591 27900.00000 0 16646004.147 -2661498.378 19135602.771 10 0 60591 28800.00000 0 14809781.089 -1020100.608 20735767.366 10 0 60591 29700.00000 0 12981666.905 877591.821 21932925.408 10 0 60591 30600.00000 0 11220858.322 2997857.410 22703830.993 10 0 60591 31500.00000 0 9580390.188 5296228.917 23033525.386 10 0 60591 32400.00000 0 8105025.384 7719116.742 22915625.464 10 0 60591 33300.00000 0 6829509.820 10205823.444 22352445.616 10 0 60591 34200.00000 0 5777264.755 12690866.209 21354951.016 10 0 60591 35100.00000 0 4959570.185 15106511.194 19942543.268 10 0 60591 36000.00000 0 4375272.470 17385414.814 18142682.577 10 0 60591 36900.00000 0 4011027.356 19463262.401 15990353.660 10 0 60591 37800.00000 0 3842067.115 21281294.715 13527385.588 10 0 60591 38700.00000 0 3833458.483 22788617.272 10801638.544 10 0 60591 39600.00000 0 3941797.488 23944196.380 7866073.160 10 0 60591 40500.00000 0 4117268.779 24718458.786 4777720.475 10 0 60591 41400.00000 0 4305981.749 25094428.311 1596572.557 10 0 60591 42300.00000 0 4452483.984 25068352.269 -1615584.411 10 0 60591 43200.00000 0 4502345.108 24649791.819 -4796371.654 10 0 60591 44100.00000 0 4404701.116 23861172.965 -7884030.227 10 0 60591 45000.00000 0 4114651.034 22736817.537 -10818620.483 10 0 60591 45900.00000 0 3595404.018 21321495.306 -13543185.026 10 0 60591 46800.00000 0 2820085.650 19668558.379 -16004852.519 10 0 60591 47700.00000 0 1773126.597 17837736.418 -18155860.971 10 0 60591 48600.00000 0 451174.479 15892685.139 -19954480.917 10 0 60591 49500.00000 0 -1136510.246 13898390.670 -21365821.076 10 0 60591 50400.00000 0 -2968191.906 11918537.991 -22362501.340 10 0 60591 51300.00000 0 -5010326.075 10012952.931 -22925180.688 10 0 60591 52200.00000 0 -7218728.200 8235223.795 -23042930.297 10 0 60591 53100.00000 0 -9540196.884 6630601.092 -22713445.032 10 0 60591 54000.00000 0 -11914525.439 5234262.094 -21943089.388 10 0 60591 54900.00000 0 -14276819.218 4070011.689 -20746776.960 10 0 60591 55800.00000 0 -16560023.354 3149472.952 -19147685.464 10 0 60591 56700.00000 0 -18697556.649 2471800.417 -17176812.331 10 0 60591 57600.00000 0 -20625942.673 2023927.338 -14872378.806 10 0 60591 58500.00000 0 -22287328.849 1781335.946 -12279093.419 10 0 60591 59400.00000 0 -23631788.662 1709317.801 -9447288.428 10 0 60591 60300.00000 0 -24619310.812 1764670.676 -6431945.440 10 0 60591 61200.00000 0 -25221391.882 1897759.978 -3291628.824 10 0 60591 62100.00000 0 -25422165.560 2054857.085 -87347.540 10 0 60591 63000.00000 0 -25219020.699 2180655.179 3118632.353 10 0 60591 63900.00000 0 -24622681.998 2220855.400 6264001.011 10 0 60591 64800.00000 0 -23656749.707 2124713.038 9287619.821 10 0 60591 65700.00000 0 -22356717.599 1847435.061 12130713.919 10 0 60591 66600.00000 0 -20768510.505 1352326.559 14738018.401 10 0 60591 67500.00000 0 -18946602.971 612594.279 17058855.468 10 0 60591 68400.00000 0 -16951798.152 -387269.985 19048121.296 10 0 60591 69300.00000 0 -14848760.271 -1650585.563 20667163.283 10 0 60591 70200.00000 0 -12703404.145 -3168097.791 21884530.721 10 0 60591 71100.00000 0 -10580250.947 -4918128.852 22676584.584 10 0 60591 72000.00000 0 -8539860.632 -6867259.271 23027954.875 10 0 60591 72900.00000 0 -6636447.869 -8971512.483 22931837.062 10 0 60591 73800.00000 0 -4915780.429 -11177993.888 22390122.177 10 0 60591 74700.00000 0 -3413446.994 -13426916.692 21413358.299 10 0 60591 75600.00000 0 -2153565.738 -15653930.718 20020544.284 10 0 60591 76500.00000 0 -1147986.492 -17792657.632 18238759.751 10 0 60591 77400.00000 0 -396018.713 -19777327.260 16102638.374 10 0 60591 78300.00000 0 115304.692 -21545405.337 13653694.541 10 0 60591 79200.00000 0 410439.976 -23040103.225 10939516.237 10 0 60591 80100.00000 0 524055.931 -24212664.836 8012839.693 10 0 60591 81000.00000 0 499322.940 -25024335.248 4930523.710 10 0 60591 81900.00000 0 385840.886 -25447928.666 1752443.644 10 0 60591 82800.00000 0 237294.345 -25468930.131 -1459673.265 10 0 60591 83700.00000 0 108934.978 -25086084.925 -4643448.305 10 0 60591 84600.00000 0 54998.314 -24311451.138 -7737063.793 10 0 60591 85500.00000 0 126164.818 -23169913.408 -10680463.761 10 0 60592 0.00000 0 367173.107 -21698178.647 -13416519.032 10 0 60592 900.00000 0 814686.891 -19943295.214 -15892135.403 10 0 60592 1800.00000 0 1495505.807 -17960759.788 -18059279.841 10 0 60592 2700.00000 0 2425196.572 -15812288.578 -19875909.963 10 0 60592 3600.00000 0 3607202.416 -13563347.829 -21306785.488 10 0 60592 4500.00000 0 5032469.069 -11280545.714 -22324147.960 10 0 60592 5400.00000 0 6679603.858 -9028994.018 -22908255.913 10 0 60592 6300.00000 0 8515562.284 -6869748.891 -23047765.663 10 0 60592 7200.00000 0 10496834.495 -4857436.445 -22739950.722 10 0 60592 8100.00000 0 12571083.329 -3038161.123 -21990755.808 10 0 60592 9000.00000 0 14679166.787 -1447782.952 -20814684.356 10 0 60592 9900.00000 0 16757461.733 -110634.508 -19234521.420 10 0 60592 10800.00000 0 18740392.893 961269.870 -17280896.827 10 0 60592 11700.00000 0 20563062.485 1768500.453 -14991696.406 10 0 60592 12600.00000 0 22163871.180 2323943.771 -12411331.990 10 0 60592 13500.00000 0 23487021.165 2652011.486 -9589883.695 10 0 60592 14400.00000 0 24484796.592 2787360.468 -6582130.545 10 0 60592 15300.00000 0 25119525.657 2773178.540 -3446487.959 10 0 60592 16200.00000 0 25365141.626 2659108.893 -243872.619 10 0 60592 17100.00000 0 25208276.792 2498901.466 2963483.088 10 0 60592 18000.00000 0 24648842.857 2347891.365 6113243.608 10 0 60592 18900.00000 0 23700072.871 2260411.800 9144185.667 10 0 60592 19800.00000 0 22388022.529 2287251.901 11997392.413 10 0 60592 20700.00000 0 20750551.481 2473267.903 14617402.396 10 0 60592 21600.00000 0 18835827.283 2855249.698 16953290.614 10 0 60592 22500.00000 0 16700414.603 3460133.840 18959660.265 10 0 60592 23400.00000 0 14407029.773 4303639.399 20597525.789 10 0 60592 24300.00000 0 12022054.619 5389385.070 21835070.109 10 0 60592 25200.00000 0 9612913.377 6708525.647 22648261.593 10 0 60592 26100.00000 0 7245422.056 8239923.974 23021319.085 10 0 60592 27000.00000 0 4981220.428 9950852.056 22947016.334 10 0 60592 27900.00000 0 2875393.137 11798192.732 22426820.282 10 0 60592 28800.00000 0 974378.368 13730092.393 21470860.767 10 0 60592 29700.00000 0 -685749.714 15687996.267 20097732.364 10 0 60592 30600.00000 0 -2080554.229 17608981.788 18334132.209 10 0 60592 31500.00000 0 -3198012.599 19428292.946 16214340.733 10 0 60592 32400.00000 0 -4038766.182 21081969.982 13779555.199 10 0 60592 33300.00000 0 -4615833.443 22509464.652 11077088.769 10 0 60592 34200.00000 0 -4953800.040 23656131.634 8159450.507 10 0 60592 35100.00000 0 -5087521.216 24475491.733 5083324.147 10 0 60592 36000.00000 0 -5060392.348 24931171.909 1908465.450 10 0 60592 36900.00000 0 -4922261.713 24998440.661 -1303460.154 10 0 60592 37800.00000 0 -4727074.595 24665274.210 -4490076.821 10 0 60592 38700.00000 0 -4530349.142 23932908.668 -7589510.806 10 0 60592 39600.00000 0 -4386591.403 22815854.964 -10541592.315 10 0 60592 40500.00000 0 -4346759.428 21341375.891 -13289023.112 10 0 60592 41400.00000 0 -4455884.086 19548447.174 -15778487.115 10 0 60592 42300.00000 0 -4750947.504 17486246.032 -17961682.454 10 0 60592 43200.00000 0 -5259109.008 15212230.328 -19796255.226 10 0 60592 44100.00000 0 -5996353.730 12789888.322 -21246617.276 10 0 60592 45000.00000 0 -6966621.241 10286252.534 -22284632.651 10 0 60592 45900.00000 0 -8161451.399 7769280.775 -22890160.029 10 0 60592 46800.00000 0 -9560163.048 5305212.651 -23051441.159 10 0 60592 47700.00000 0 -11130558.946 2956010.673 -22765328.172 10 0 60592 48600.00000 0 -12830128.456 776991.418 -22037345.623 10 0 60592 49500.00000 0 -14607698.785 -1185255.801 -20881586.006 10 0 60592 50400.00000 0 -16405466.831 -2894577.178 -19320440.516 10 0 60592 51300.00000 0 -18161327.727 -4326519.466 -17384169.801 10 0 60592 52200.00000 0 -19811403.582 -5469100.063 -15110322.335 10 0 60592 53100.00000 0 -21292667.246 -6323050.855 -12543011.032 10 0 60592 54000.00000 0 -22545551.608 -6901526.444 -9732061.427 10 0 60592 54900.00000 0 -23516435.141 -7229289.795 -6732047.369 10 0 60592 55800.00000 0 -24159899.207 -7341410.221 -3601232.634 10 0 60592 56700.00000 0 -24440661.886 -7281529.305 -400438.881 10 0 60592 57600.00000 0 -24335106.450 -7099768.603 2808137.952 10 0 60592 58500.00000 0 -23832339.486 -6850368.280 5962139.390 10 0 60592 59400.00000 0 -22934733.442 -6589157.304 9000260.266 10 0 60592 60300.00000 0 -21657930.060 -6370963.054 11863444.426 10 0 60592 61200.00000 0 -20030303.961 -6247070.751 14496036.445 10 0 60592 62100.00000 0 -18091908.414 -6262841.037 16846866.469 10 0 60592 63000.00000 0 -15892947.109 -6455587.200 18870246.798 10 0 60592 63900.00000 0 -13491835.704 -6852802.467 20526860.632 10 0 60592 64800.00000 0 -10952933.964 -7470812.907 21784525.834 10 0 60592 65700.00000 0 -8344043.007 -8313913.366 22618819.053 10 0 60592 66600.00000 0 -5733771.787 -9374023.468 23013548.411 10 0 60592 67500.00000 0 -3188882.161 -10630878.786 22961065.979 10 0 60592 68400.00000 0 -771722.564 -12052749.763 22462414.274 10 0 60592 69300.00000 0 1462143.562 -13597658.827 21527304.234 10 0 60592 70200.00000 0 3466016.709 -15215045.239 20173925.199 10 0 60592 71100.00000 0 5203762.093 -16847808.416 18428590.609 10 0 60592 72000.00000 0 6651062.510 -18434644.510 16325226.184 10 0 60592 72900.00000 0 7796172.253 -19912578.646 13904710.338 10 0 60592 73800.00000 0 8640141.942 -21219586.850 11214079.427 10 0 60592 74700.00000 0 9196506.222 -22297197.740 8305613.135 10 0 60592 75600.00000 0 9490448.819 -23092964.716 5235817.682 10 0 60592 76500.00000 0 9557481.411 -23562704.719 2064326.627 10 0 60592 77400.00000 0 9441693.162 -23672409.214 -1147259.142 10 0 60592 78300.00000 0 9193645.895 -23399746.854 -4336569.452 10 0 60592 79200.00000 0 8868004.701 -22735094.379 -7441677.317 10 0 60592 80100.00000 0 8521004.921 -21682052.153 -10402301.905 10 0 60592 81000.00000 0 8207863.167 -20257422.431 -13160978.407 10 0 60592 81900.00000 0 7980242.258 -18490650.986 -15664171.963 10 0 60592 82800.00000 0 7883877.481 -16422755.227 -17863314.030 10 0 60592 83700.00000 0 7956464.583 -14104783.337 -19715741.364 10 0 60592 84600.00000 0 8225898.748 -11595868.348 -21185519.799 10 0 60592 85500.00000 0 8708938.892 -8960957.876 -22244137.375 10 0 60593 0.00000 0 9410353.671 -6268313.633 -22871053.947 10 0 60593 900.00000 0 10322585.888 -3586882.532 -23054097.433 10 0 60593 1800.00000 0 11425948.937 -983651.376 -22789698.701 10 0 60593 2700.00000 0 12689348.996 1478910.757 -22082961.911 10 0 60593 3600.00000 0 14071502.650 3745213.662 -20947567.988 10 0 60593 4500.00000 0 15522600.192 5768615.039 -19405513.276 10 0 60593 5400.00000 0 16986345.761 7513112.151 -17486687.872 10 0 60593 6300.00000 0 18402289.694 8954586.660 -15228301.172 10 0 60593 7200.00000 0 19708355.936 10081551.603 -12674165.076 10 0 60593 8100.00000 0 20843458.925 10895370.146 -9873848.079 10 0 60593 9000.00000 0 21750100.227 11409937.744 -6881716.060 10 0 60593 9900.00000 0 22376835.640 11650841.782 -3755878.076 10 0 60593 10800.00000 0 22680508.610 11654034.772 -557057.477 10 0 60593 11700.00000 0 22628155.329 11464077.718 2652589.630 10 0 60593 12600.00000 0 22198500.500 11132028.527 5810685.214 10 0 60593 13500.00000 0 21382979.895 10713065.401 8855845.444 10 0 60593 14400.00000 0 20186245.746 10263946.454 11728877.880 10 0 60593 15300.00000 0 18626132.829 9840413.742 14373935.835 10 0 60593 16200.00000 0 16733085.879 9494652.196 16739606.989 10 0 60593 17100.00000 0 14549071.655 9272911.556 18779914.750 10 0 60593 18000.00000 0 12126020.685 9213392.338 20455212.731 10 0 60593 18900.00000 0 9523863.392 9344485.610 21732955.002 10 0 60593 19800.00000 0 6808242.175 9683441.216 22588327.364 10 0 60593 20700.00000 0 4047994.461 10235520.937 23004727.704 10 0 60593 21600.00000 0 1312511.117 10993672.577 22974086.455 10 0 60593 22500.00000 0 -1330920.430 11938739.007 22497021.322 10 0 60593 23400.00000 0 -3819678.449 13040193.692 21582823.489 10 0 60593 24300.00000 0 -6098168.784 14257372.156 20249275.759 10 0 60593 25200.00000 0 -8119889.001 15541147.980 18522306.145 10 0 60593 26100.00000 0 -9849109.876 16835983.245 16435483.549 10 0 60593 27000.00000 0 -11262105.297 18082267.519 14029365.123 10 0 60593 27900.00000 0 -12347880.467 19218847.292 11350707.798 10 0 60593 28800.00000 0 -13108369.262 20185639.524 8451559.107 10 0 60593 29700.00000 0 -13558093.788 20926219.352 5388244.925 10 0 60593 30600.00000 0 -13723301.786 21390272.857 2220273.753 10 0 60593 31500.00000 0 -13640619.391 21535811.358 -990820.890 10 0 60593 32400.00000 0 -13355277.194 21331053.677 -4182677.270 10 0 60593 33300.00000 0 -12918985.463 20755896.699 -7293317.832 10 0 60593 34200.00000 0 -12387549.059 19802911.944 -10262353.244 10 0 60593 35100.00000 0 -11818323.499 18477825.786 -13032154.468 10 0 60593 36000.00000 0 -11267620.054 16799462.671 -15548969.970 10 0 60593 36900.00000 0 -10788169.767 14799153.244 -17763966.378 10 0 60593 37800.00000 0 -10426753.518 12519631.619 -19634172.662 10 0 60593 38700.00000 0 -10222098.062 10013467.279 -21123309.903 10 0 60593 39600.00000 0 -10203126.624 7341096.369 -22202491.106 10 0 60593 40500.00000 0 -10387637.590 4568533.615 -22850778.059 10 0 60593 41400.00000 0 -10781466.869 1764859.175 -23055585.012 10 0 60593 42300.00000 0 -11378169.250 -1000416.101 -22812921.802 10 0 60593 43200.00000 0 -12159232.407 -3659998.617 -22127471.934 10 0 60593 44100.00000 0 -13094815.050 -6151364.342 -21012504.156 10 0 60593 45000.00000 0 -14144978.811 -8419110.519 -19489618.976 10 0 60593 45900.00000 0 -15261362.895 -10417010.097 -17588334.606 10 0 60593 46800.00000 0 -16389231.831 -12109684.375 -15345519.693 10 0 60593 47700.00000 0 -17469810.968 -13473824.997 -12804683.173 10 0 60593 48600.00000 0 -18442811.959 -14498915.124 -10015134.319 10 0 60593 49500.00000 0 -19249042.250 -15187420.309 -7031028.686 10 0 60593 50400.00000 0 -19832988.621 -15554441.765 -3910318.123 10 0 60593 51300.00000 0 -20145265.644 -15626847.225 -713625.083 10 0 60593 52200.00000 0 -20144825.239 -15441916.649 2496936.829 10 0 60593 53100.00000 0 -19800833.354 -15045560.482 5658972.763 10 0 60593 54000.00000 0 -19094133.700 -14490186.380 8711022.999 10 0 60593 54900.00000 0 -18018235.794 -13832305.166 11593761.584 10 0 60593 55800.00000 0 -16579784.642 -13129977.884 14251153.272 10 0 60593 56700.00000 0 -14798491.289 -12440212.439 16631545.832 10 0 60593 57600.00000 0 -12706526.173 -11816420.409 18688676.119 10 0 60593 58500.00000 0 -10347399.909 -11306041.859 20382570.176 10 0 60593 59400.00000 0 -7774377.570 -10948438.726 21680319.929 10 0 60593 60300.00000 0 -5048492.064 -10773145.838 22556721.576 10 0 60593 61200.00000 0 -2236238.870 -10798553.352 22994763.582 10 0 60593 62100.00000 0 592952.404 -11031076.147 22985955.159 10 0 60593 63000.00000 0 3369365.088 -11464845.099 22530489.214 10 0 60593 63900.00000 0 6025651.646 -12081933.215 21637236.852 10 0 60593 64800.00000 0 8499389.336 -12853107.132 20323573.697 10 0 60593 65700.00000 0 10735429.862 -13739072.382 18615041.389 10 0 60593 66600.00000 0 12687946.127 -14692160.102 16544850.765 10 0 60593 67500.00000 0 14322091.806 -15658384.275 14153236.172 10 0 60593 68400.00000 0 15615205.630 -16579782.908 11486673.231 10 0 60593 69300.00000 0 16557511.133 -17396944.509 8596975.123 10 0 60593 70200.00000 0 17152283.826 -18051613.290 5540284.844 10 0 60593 71100.00000 0 17415479.968 -18489263.052 2375983.048 10 0 60593 72000.00000 0 17374843.753 -18661530.906 -834467.122 10 0 60593 72900.00000 0 17068531.601 -18528407.808 -4028715.493 10 0 60593 73800.00000 0 16543312.571 -18060093.076 -7144737.078 10 0 60593 74700.00000 0 15852421.672 -17238434.208 -10122037.122 10 0 60593 75600.00000 0 15053157.357 -16057890.813 -12902825.300 10 0 60593 76500.00000 0 14204325.092 -14525981.490 -15433136.161 10 0 60593 77400.00000 0 13363635.159 -12663194.243 -17663874.014 10 0 60593 78300.00000 0 12585164.489 -10502363.499 -19551762.265 10 0 60593 79200.00000 0 11916989.399 -8087538.980 -21060179.143 10 0 60593 80100.00000 0 11399088.651 -5472392.876 -22159864.141 10 0 60593 81000.00000 0 11061604.746 -2718230.798 -22829482.053 10 0 60593 81900.00000 0 10923536.200 108311.747 -23056034.279 10 0 60593 82800.00000 0 10991915.498 2937792.608 -22835109.811 10 0 60593 83700.00000 0 11261507.076 5700602.301 -22170971.369 10 0 60593 84600.00000 0 11715038.060 8329610.930 -21076474.991 10 0 60593 85500.00000 0 12323952.218 10762713.872 -19572824.464 99